Regional Weather Roundup
Issued by NWS Green Bay, WI

Home | Current Version | Previous Version | Graphics & Text | Print | Product List | Glossary Off
Versions: 1 2 3 4 5 6 7 8 9 10 11 12 13 14 15 16 17 18 19 20 21 22 23 24 25 26 27 28 29 30 31 32 33 34 35 36 37 38 39 40 41 42 43 44 45 46 47 48 49 50

000
ASUS43 KGRB 200700
RWRGRB

NORTH-CENTRAL AND NORTHEAST WISCONSIN REGIONAL WEATHER ROUNDUP
NATIONAL WEATHER SERVICE GREEN BAY WI
200 AM CDT WED SEP 20 2017

WIZ005-009-010>012-018-019-200800-
NORTH CENTRAL WISCONSIN

CITY           SKY/WX    TMP DP  RH WIND       PRES   REMARKS
IRONWOOD       CLOUDY    61  54  77 S16G24    29.83R
MANITOWISH WTR NOT AVBL
ARBOR VITAE    NOT AVBL
EAGLE RIVER    NOT AVBL
LAND O LAKES   NOT AVBL
RHINELANDER    CLEAR     56  54  93 SE8       29.91S
PHILLIPS       NOT AVBL
ANTIGO         NOT AVBL
TOMAHAWK       NOT AVBL
MERRILL        NOT AVBL
$$

WIZ013-073-200800-
NORTHEAST WISCONSIN

CITY           SKY/WX    TMP DP  RH WIND       PRES   REMARKS
IRON MOUNTAIN  FOG       58  56  93 SE5       29.92F VSB 1/4
MARINETTE      CLEAR     58  58 100 CALM      29.93R
$$

WIZ017-030-035>037-045-200800-
CENTRAL WISCONSIN

CITY           SKY/WX    TMP DP  RH WIND       PRES   REMARKS
MEDFORD        NOT AVBL
WAUSAU         MOCLDY    60  59  96 SE8       29.89R
MOSINEE        NOT AVBL
MARSHFIELD     CLEAR     61  57  87 SE8       29.87R
WISC RAPIDS    CLEAR     62  60  93 SE9       29.89S
STEVENS POINT  NOT AVBL
WAUPACA        NOT AVBL
SHAWANO        CLEAR     58  55  89 CALM      29.93R
CLINTONVILLE   CLOUDY    55  54  94 CALM      29.93R
WAUTOMA        CLOUDY    61  60  97 CALM      29.91R FOG
$$

WIZ038-039-048-051-200800-
FOX VALLEY

CITY           SKY/WX    TMP DP  RH WIND       PRES   REMARKS
NWS GREEN BAY  CLEAR     55  55 100 NW5       29.93R
APPLETON       CLEAR     59  59 100 SE5       29.90S
OSHKOSH        CLEAR     57  57 100 S6        29.91S FOG
FOND DU LAC    CLOUDY    62  59  90 S8        29.92S
$$

WIZ022-050-052-200800-
EAST CENTRAL WISCONSIN

CITY           SKY/WX    TMP DP  RH WIND       PRES   REMARKS
EPHRAIM        FAIR      62  60  95 S5        29.93R
WASHINGTON ISL NOT AVBL
STURGEON BAY   CLEAR     63  61  93 SE7       29.93S
MANITOWOC      CLEAR     64  62  93 S8        29.93R
SHEBOYGAN      FOG       54  54 100 CALM      29.92R VSB 1/4
$$

LMZ563-521-522-541>543-200800-
LAKESHORE

STATION/POSITION TIME  TEMP    WIND        PRES    VSBY  WAVE
                       AIR SEA DIR/SP/G                  HT/PER
                 (UTC) (F)     (DEG/KT/KT) (MB)    (MI)  (FT/S)
SHEBOYGAN LKSHOR 0600   67     130/ 12/ 13 1012.4F
KEWAUNEE LKSHORE 0624   61      CALM  /  2 1012.2
NORTHPORT PIER   0640   66     160/  8/ 12 1013.5R
N MID LAKE BUOY  0550   65 65  140/ 12/ 14 1014.1F         2/ 4
S GREEN BAY BUOY 0600   64 66  110/  8/ 10 1012.6F
SISTER BAY LKSHO 0619   64     150/  5/  7   N/A
MENOMINEE LKSHOR 0624   66     150/ 11/ 12 1012.6
$$




USA.gov is the U.S. government's official web portal to all federal, state and local government web resources and services.